Theta_e
315 315 315 314 314 314 314 314 313 313 313 313 313 317 319 320 320 320 319 318 316 315 315 316 316 316 316 316 313 317 324 332 333 330 335 342 341 339 333 335 338 343 347 345 350 355 354 353 354 353 355 355 356 359 356 346 350 348 349 343 332 339 342 345 352 348 351 355 353 352 352 351 354 353 349 350 349 348 353 352 353 358 358 356 356 357 356 352
315 315 314 315 314 314 314 313 313 313 312 312 312 316 320 320 321 321 320 318 318 316 316 316 315 316 316 315 315 316 320 331 339 339 343 344 339 337 334 334 338 345 349 350 355 358 354 353 353 352 352 356 355 355 350 345 349 346 344 339 335 343 345 347 350 347 351 352 352 352 351 349 351 350 347 354 353 350 356 354 354 359 359 358 357 356 354 350
315 315 314 314 314 314 313 313 313 313 313 313 313 316 320 321 321 321 321 320 319 317 316 316 316 317 316 315 316 318 325 334 340 341 346 344 336 333 333 336 339 346 353 355 354 356 354 351 351 351 351 355 354 353 351 345 344 343 342 339 339 345 343 348 347 346 348 349 351 350 351 348 347 348 348 353 353 353 357 355 356 361 360 357 355 353 350 349
315 314 314 314 313 313 313 313 313 313 313 313 313 316 321 321 321 321 322 322 321 319 317 316 316 316 315 316 315 320 333 342 340 342 341 339 334 334 335 339 343 346 353 358 353 353 351 348 351 349 350 354 350 349 348 343 343 343 342 341 341 344 343 347 345 345 346 347 348 347 350 347 345 349 348 354 359 356 355 354 356 360 360 356 353 351 349 349
314 314 314 313 313 313 313 312 313 313 313 313 313 317 321 322 321 322 323 323 324 321 317 316 316 316 316 316 315 325 336 338 340 343 336 336 334 336 339 343 349 350 353 357 356 351 347 348 348 346 349 351 346 344 345 344 343 343 341 341 342 342 343 344 344 344 345 346 347 348 348 344 345 349 344 356 362 358 351 353 355 358 358 355 353 351 349 347
313 313 313 312 313 312 312 312 312 312 312 313 313 317 321 321 321 322 323 324 325 324 319 317 316 316 317 315 318 330 336 332 343 341 332 337 336 337 343 346 354 355 354 358 356 350 347 348 348 349 348 347 345 344 344 346 344 344 343 343 342 342 343 343 343 345 347 347 346 346 344 342 346 347 346 350 354 350 348 352 354 356 357 354 353 350 348 345
313 313 313 312 312 312 312 312 312 312 313 313 313 317 321 321 322 322 323 324 325 325 321 317 316 317 316 318 329 337 337 336 345 337 331 336 335 337 344 347 352 354 357 359 355 349 347 349 348 347 347 346 345 344 343 345 343 343 344 344 343 344 344 344 345 347 347 347 346 346 344 346 347 345 346 345 346 348 348 351 355 356 357 355 353 350 347 345
313 313 312 312 312 312 312 311 312 312 312 313 312 317 320 321 322 322 324 324 324 325 322 318 316 318 316 321 332 338 337 341 341 333 331 334 335 338 342 347 350 352 359 360 355 348 345 347 343 340 344 346 344 343 343 342 343 344 343 344 345 345 345 344 345 345 347 347 347 348 346 345 344 340 343 346 346 347 347 351 354 354 354 354 354 352 349 346
313 313 313 313 313 312 312 312 311 312 312 313 312 316 321 320 321 323 323 325 325 325 321 318 318 317 316 322 328 328 341 347 335 330 332 332 334 337 341 348 349 353 358 356 352 347 345 344 341 339 341 341 342 343 345 343 341 342 344 347 346 345 345 345 345 345 345 346 348 350 347 345 342 339 342 345 345 346 347 348 349 352 352 352 354 352 350 347
315 315 314 314 314 313 313 311 311 312 312 312 312 315 319 320 321 323 324 325 325 324 322 320 320 319 318 326 329 330 345 346 334 331 335 337 337 337 342 348 350 352 354 353 348 345 343 340 339 338 339 340 341 341 345 343 342 342 344 346 347 345 347 346 345 346 345 346 349 349 348 349 345 344 344 342 344 345 345 347 347 349 350 350 351 351 350 349
319 318 317 316 316 314 313 311 311 311 312 313 313 313 318 320 320 322 324 325 324 322 322 322 322 321 322 328 328 332 347 347 341 340 343 346 344 342 345 348 350 350 350 348 347 344 342 342 340 338 338 340 338 340 346 344 342 342 342 351 349 345 347 347 346 346 348 348 347 348 354 357 350 347 346 342 343 343 345 346 346 346 347 348 349 350 349 350
320 319 319 317 317 315 313 312 311 311 312 312 312 313 316 319 320 321 323 323 323 323 323 323 323 322 326 328 326 335 347 348 347 347 348 350 347 346 346 347 351 349 347 344 344 343 341 342 338 337 338 338 337 340 343 341 342 340 346 358 354 347 345 347 346 344 348 349 348 351 353 357 355 349 345 343 342 343 344 346 346 346 347 347 348 348 348 350
319 319 319 318 317 316 314 313 311 311 311 313 313 313 316 318 320 320 322 322 323 324 323 324 322 323 330 331 329 337 342 343 348 347 350 350 347 347 345 346 348 347 345 342 343 342 341 341 339 339 337 337 337 338 340 338 342 340 346 353 353 347 346 347 347 343 346 348 350 352 339 344 358 351 343 343 342 342 344 346 345 346 346 346 347 346 346 349
317 317 318 318 318 316 314 313 311 311 312 312 313 313 314 317 319 319 321 322 323 323 324 325 323 325 330 331 330 335 333 339 345 346 346 347 346 344 344 345 346 346 344 342 343 341 341 341 340 338 336 337 337 338 338 337 343 341 348 353 347 336 339 346 347 343 347 346 348 349 332 338 358 350 343 344 341 341 345 345 343 345 346 346 346 345 346 347
315 316 317 318 318 317 315 312 312 311 312 313 313 314 315 316 319 319 320 321 323 323 323 324 324 326 328 327 329 328 329 334 338 341 342 344 343 342 344 344 344 343 344 342 342 341 341 341 338 338 335 335 335 338 335 341 349 347 352 350 346 332 337 348 347 343 347 345 345 344 332 338 355 348 344 346 343 342 344 344 343 344 344 344 346 346 344 344
313 314 316 317 318 317 316 313 311 311 312 313 314 314 315 317 318 319 320 321 323 323 324 326 329 331 327 326 328 326 328 330 328 333 339 340 342 340 341 342 342 342 342 341 341 340 339 339 339 335 335 334 333 337 333 333 338 343 347 336 332 331 335 343 345 343 344 344 343 343 334 340 349 348 344 343 344 341 345 344 342 345 345 345 344 345 345 344
312 313 315 316 317 318 317 314 311 311 312 314 315 315 316 318 319 320 320 321 321 324 325 329 332 332 329 326 327 326 328 329 326 329 334 338 341 339 339 339 340 340 340 339 338 339 339 337 336 333 335 334 333 336 325 318 323 333 336 330 330 335 333 335 343 344 342 344 344 343 339 340 343 344 343 344 344 341 345 343 341 345 343 344 345 344 345 345
309 311 314 315 317 318 317 314 311 312 313 316 317 317 316 319 321 321 323 324 325 328 329 330 330 329 326 325 325 325 328 329 328 328 332 337 338 338 338 337 338 338 338 338 337 338 336 335 336 334 334 332 334 332 319 315 323 325 325 325 329 334 332 333 339 340 340 341 345 344 342 343 341 341 345 345 344 343 345 343 344 349 344 343 345 345 344 344
306 308 311 314 316 318 317 314 311 312 316 319 319 320 322 325 328 327 327 330 332 333 331 331 331 326 323 324 327 326 326 327 328 327 329 333 337 337 337 335 336 335 335 337 337 335 335 335 333 330 328 330 333 332 325 325 329 327 328 327 323 324 329 338 339 339 342 338 343 344 340 342 342 340 347 347 345 345 344 345 349 351 351 349 345 343 345 344
304 306 308 312 315 317 318 314 311 312 317 321 322 327 330 329 332 331 328 329 330 333 329 327 329 327 325 327 326 326 326 326 326 326 326 329 333 334 333 333 333 334 334 335 335 334 335 333 330 327 328 330 332 332 332 333 331 331 330 326 323 321 322 335 339 339 341 336 336 340 337 340 339 340 350 349 346 346 344 347 351 349 354 360 352 344 346 345
303 304 306 309 313 317 317 314 311 314 317 323 327 330 327 324 325 327 324 324 326 329 326 326 326 326 327 328 328 327 326 325 326 325 325 328 331 331 330 331 331 330 333 332 332 334 332 329 329 332 332 332 333 331 332 332 333 332 329 324 322 322 322 333 337 336 338 335 332 338 336 337 338 341 349 349 346 347 345 346 351 350 351 356 354 348 349 349
303 303 304 307 312 316 317 313 312 317 320 325 331 328 323 322 323 324 323 323 325 326 325 326 325 325 326 326 328 327 326 325 325 325 326 325 327 328 327 328 328 329 331 331 331 330 327 326 330 334 332 332 332 331 330 332 333 330 328 323 318 322 326 329 333 334 336 331 331 337 332 332 337 341 349 350 346 348 345 344 349 351 350 352 353 351 351 351
303 303 303 305 309 315 317 313 314 321 324 327 327 324 324 324 323 324 325 325 326 326 325 325 324 324 325 326 326 327 325 324 323 325 327 325 326 326 326 326 326 327 328 327 328 324 320 326 331 333 332 331 330 329 329 328 329 328 326 319 315 323 323 319 327 333 335 330 332 336 332 333 338 341 348 350 348 349 347 344 343 347 351 352 352 349 348 352
304 304 303 304 307 314 316 312 317 323 324 326 325 324 325 324 324 325 325 327 327 325 325 326 325 325 325 326 326 325 324 325 324 325 327 326 326 326 324 325 325 326 327 327 329 325 322 328 332 331 331 333 329 330 331 326 323 326 327 320 317 323 323 320 328 331 331 331 334 333 322 324 335 338 344 352 351 349 347 346 345 345 349 351 351 347 348 352
305 304 304 304 306 313 314 314 321 323 323 325 324 325 325 324 326 325 326 327 323 324 327 325 326 327 326 327 326 326 325 325 325 326 327 327 326 325 325 325 323 324 325 326 326 326 326 330 330 330 330 333 331 330 329 325 320 320 325 326 324 326 326 326 329 326 321 319 328 328 312 314 329 333 342 352 352 350 349 349 349 350 349 349 352 351 353 356
305 304 305 303 305 311 315 321 323 322 324 326 325 325 323 325 325 324 329 325 316 322 326 324 326 326 326 326 326 326 323 324 326 326 327 327 327 326 326 326 326 324 324 326 325 324 326 327 328 330 329 332 331 328 329 329 319 313 322 328 328 328 327 325 326 321 313 313 326 330 315 311 319 327 339 349 351 356 354 353 351 354 351 346 349 353 356 358
305 305 304 304 305 308 315 323 322 323 327 326 325 324 323 325 324 325 328 315 311 321 326 324 325 325 325 326 327 325 320 322 327 326 326 327 327 326 324 325 327 325 326 324 318 320 327 327 326 327 329 329 328 324 329 330 319 315 324 329 327 328 326 326 324 319 317 319 325 327 321 312 311 321 337 343 342 351 357 356 355 354 353 345 347 352 354 356
305 306 305 305 307 310 314 318 321 325 326 324 324 324 324 324 324 330 323 309 312 325 326 325 326 324 325 326 327 325 322 323 324 325 327 328 327 326 323 325 326 325 328 323 313 319 327 327 326 327 327 326 326 326 329 329 322 321 328 329 327 328 327 327 323 317 319 318 312 317 321 312 309 319 335 341 335 337 351 357 357 355 353 349 347 348 351 355
305 305 305 304 308 317 321 320 323 325 324 324 324 322 323 323 325 330 319 310 319 325 324 325 325 324 326 327 326 326 326 326 324 325 328 327 326 327 325 325 325 325 326 324 320 323 326 327 328 328 326 325 326 329 328 328 325 326 327 326 327 328 328 327 323 316 316 314 308 311 315 311 310 316 325 330 330 332 340 348 355 358 354 352 351 347 347 353
305 305 305 304 308 316 319 320 323 324 324 324 322 322 324 324 326 320 310 311 319 322 324 325 324 326 326 326 325 326 326 325 325 326 326 326 325 326 326 326 327 325 327 326 325 326 327 328 328 328 327 328 327 328 328 327 327 327 327 326 324 325 326 325 322 317 312 310 310 312 315 312 310 313 320 326 328 331 333 343 355 358 354 353 353 349 347 352
305 305 304 304 306 309 313 318 321 321 324 323 322 323 323 325 325 313 309 317 319 321 325 325 325 327 325 325 325 324 325 325 326 326 325 326 326 325 324 324 323 323 323 322 323 325 327 326 327 327 327 327 327 326 327 327 327 326 326 322 317 316 318 315 315 314 310 308 311 313 317 315 309 313 323 329 333 332 335 343 350 355 356 354 352 350 351 354
305 304 305 305 305 306 308 315 318 320 323 323 322 324 323 322 318 310 313 319 315 319 325 325 325 327 325 325 325 325 326 324 326 326 325 325 325 326 325 323 323 317 312 314 318 322 324 326 327 327 328 328 327 324 323 326 325 326 323 317 310 309 310 310 309 310 309 309 313 316 317 314 311 318 328 331 333 335 340 343 341 348 354 355 354 354 355 355
304 304 304 305 307 309 310 314 319 321 323 323 322 325 324 316 312 312 315 317 316 321 326 324 326 326 325 325 324 326 327 325 326 325 325 325 325 325 324 324 326 319 312 313 314 312 317 324 328 326 326 328 327 321 317 318 323 323 318 312 309 308 308 308 308 308 309 310 314 319 317 312 311 322 331 332 334 336 339 340 339 342 345 351 356 356 356 357
304 305 307 310 311 312 315 317 319 321 323 324 323 324 322 314 314 316 317 319 321 325 325 325 326 327 325 325 324 326 324 324 327 326 325 325 322 322 324 325 326 323 321 316 313 311 309 313 322 325 325 327 328 325 321 321 323 323 324 320 312 309 309 309 308 308 308 309 311 316 315 310 310 320 332 335 334 337 337 338 342 341 341 347 355 357 354 356
304 308 314 319 318 317 319 318 319 323 322 324 323 321 316 312 315 317 319 322 324 325 325 325 327 324 323 325 325 326 325 323 326 327 324 324 321 321 324 325 326 326 322 314 313 315 308 310 323 328 327 328 327 327 328 326 321 322 327 321 312 314 314 309 309 309 308 307 309 310 312 315 320 329 335 334 334 337 336 339 347 349 347 349 353 355 353 356
308 313 317 321 322 323 325 321 322 324 323 323 321 317 316 316 319 320 323 325 324 325 324 322 324 319 316 321 324 326 326 323 325 325 323 324 324 324 325 325 326 326 323 317 315 316 308 311 327 328 326 330 327 327 329 324 318 320 320 314 317 325 320 310 308 310 309 307 310 310 310 316 322 329 335 334 334 335 337 344 353 355 355 352 351 353 355 358
312 317 319 321 322 323 325 323 324 323 322 324 321 318 320 323 323 324 324 326 325 327 324 316 318 318 313 314 319 324 325 323 324 321 320 321 322 324 326 326 327 327 326 322 319 320 314 311 324 329 324 327 329 327 328 327 324 319 314 317 324 326 323 315 308 308 309 307 309 310 309 311 313 319 331 335 336 339 342 347 351 357 360 359 357 358 361 363
314 318 320 322 322 322 323 321 324 324 322 322 321 323 324 323 324 324 326 325 324 327 324 316 317 321 316 313 316 325 325 320 321 321 318 319 320 324 327 326 326 326 328 326 322 324 320 311 318 329 326 325 329 326 322 326 328 323 319 324 324 314 312 313 308 308 309 307 308 309 310 313 312 317 329 335 337 343 345 348 350 356 365 366 364 365 365 364
317 321 323 323 320 321 321 320 323 324 321 321 320 323 324 322 324 324 324 325 324 324 324 320 321 322 321 318 318 325 325 319 322 322 317 318 319 323 327 326 327 327 327 328 325 326 324 313 312 325 329 325 328 322 315 318 324 325 324 326 324 315 312 313 311 311 309 308 309 308 309 314 319 330 341 343 346 348 346 349 356 360 366 367 367 366 365 365
321 322 324 324 321 320 321 321 323 323 323 321 320 321 323 322 324 323 323 324 323 323 324 323 325 321 323 323 322 324 326 324 325 322 319 322 320 322 327 326 326 327 326 328 327 326 327 318 310 320 329 322 320 320 318 318 320 321 317 316 318 317 317 315 313 312 310 309 309 308 313 321 332 345 352 350 353 353 350 356 364 367 368 366 367 366 365 366
319 319 323 325 322 321 321 321 322 322 323 322 321 321 322 322 322 323 323 323 322 324 324 324 324 323 322 324 322 324 327 325 325 324 323 324 321 321 325 327 326 327 326 327 328 325 324 320 312 313 317 315 317 326 327 325 324 322 319 317 316 315 315 311 310 312 311 310 309 309 318 330 345 351 352 351 354 354 356 362 366 370 369 365 366 364 363 363
317 319 323 325 322 321 320 320 321 321 322 322 322 321 322 322 322 322 322 323 323 324 324 323 323 324 324 324 324 326 326 324 325 324 324 325 324 323 326 328 326 327 327 325 327 327 326 323 314 310 315 319 324 328 327 325 328 326 324 325 324 319 314 307 307 311 310 311 312 309 321 338 352 353 356 355 354 355 358 363 367 368 367 366 365 362 362 362
319 321 323 323 322 319 320 321 322 321 321 322 322 321 322 322 321 322 322 323 323 323 323 324 323 324 324 324 325 326 325 324 324 325 325 326 326 325 328 327 326 326 328 324 325 328 327 322 314 311 317 324 326 328 329 328 328 324 323 327 326 321 320 314 314 315 310 311 310 309 324 344 353 354 358 354 354 357 359 362 366 367 366 365 364 362 361 361
320 321 321 322 322 319 320 321 323 322 321 321 322 321 322 321 321 322 321 321 323 322 322 323 323 322 324 325 325 327 324 321 321 325 327 327 327 327 327 326 326 327 325 328 330 326 321 319 314 310 312 315 317 320 321 323 324 322 323 327 325 324 326 321 320 318 311 310 309 308 323 343 353 356 359 353 355 358 357 360 362 365 365 363 362 362 361 361
317 317 317 320 321 319 319 320 322 324 324 322 323 322 322 321 321 321 321 321 322 322 322 322 322 322 323 325 324 324 325 322 321 325 326 325 328 328 326 327 328 324 326 342 346 328 320 322 318 311 308 310 310 311 314 317 321 322 323 325 327 326 324 320 316 312 309 312 311 311 323 341 351 355 356 354 357 359 358 361 360 364 363 361 361 361 359 363
317 319 317 317 319 319 318 319 320 322 323 325 326 324 321 322 321 321 321 321 321 321 321 322 322 322 322 324 323 323 325 323 323 326 325 326 328 326 328 328 325 326 337 348 344 329 324 325 321 316 312 312 312 315 323 324 319 318 320 323 325 327 327 322 313 309 311 312 312 318 331 336 341 351 355 353 356 358 360 362 361 363 363 360 362 359 358 362
318 321 320 319 319 319 318 317 317 319 322 325 327 326 324 322 322 322 320 321 320 321 321 321 323 322 320 323 322 321 323 324 324 325 324 326 327 326 328 325 324 342 353 340 329 329 325 319 321 322 318 320 322 324 329 329 321 319 319 321 324 327 327 321 312 314 318 311 312 330 340 331 334 350 353 352 358 360 362 362 362 364 362 360 361 358 359 362
318 319 319 320 321 321 319 318 317 317 319 323 325 326 325 323 323 322 321 322 320 320 321 322 322 322 321 323 321 320 322 322 323 325 324 325 325 325 328 325 327 345 348 328 324 332 324 316 322 323 320 324 329 328 329 329 325 325 324 322 325 326 326 321 316 323 322 312 318 339 343 334 340 349 349 353 356 356 357 359 361 363 362 361 360 359 361 362
318 318 318 320 321 323 322 322 322 319 318 321 323 323 324 323 324 323 321 322 321 321 320 320 322 321 321 322 322 322 322 319 318 323 326 325 326 325 326 326 327 335 333 326 328 331 324 319 324 325 320 322 326 328 329 327 323 325 324 324 325 326 326 324 324 327 326 324 333 345 343 343 350 351 355 358 355 352 355 357 359 363 362 361 361 360 361 361
318 317 318 320 322 323 323 323 324 323 321 320 321 321 321 322 323 324 323 321 321 321 320 320 322 322 322 322 323 323 323 322 321 323 325 325 325 326 328 327 329 329 329 328 330 329 324 321 326 327 317 317 324 328 326 326 323 321 321 327 328 326 326 326 327 327 326 330 339 343 339 346 353 355 361 362 358 357 359 359 364 365 362 360 360 359 361 360
316 315 315 317 320 322 322 323 324 324 324 324 322 322 322 322 322 324 324 323 322 322 321 320 321 321 321 322 321 322 323 323 323 324 325 326 325 327 329 327 329 330 330 329 328 330 327 323 325 325 313 312 321 324 322 324 323 318 318 324 325 324 324 325 327 329 327 329 334 335 332 341 352 355 358 361 358 357 359 360 362 359 356 354 351 353 358 360
315 315 315 315 316 318 320 321 322 323 324 324 323 324 322 322 323 323 323 324 322 321 322 322 321 321 321 321 322 323 323 324 324 323 324 325 325 326 327 327 328 328 328 330 329 330 330 324 321 320 312 311 320 323 321 320 317 313 317 325 327 327 328 328 329 333 334 333 332 329 334 346 353 353 355 357 355 355 358 358 358 358 356 350 347 350 355 357
Wind_Speed
21 22 22 23 23 23 23 23 24 24 23 24 24 23 22 22 21 20 19 17 16 15 15 16 15 15 15 14 13 10 5 1 3 8 9 6 3 3 4 6 8 10 11 13 13 8 7 7 6 8 7 6 3 5 9 6 4 3 0 3 6 8 8 8 9 8 9 10 9 9 8 9 9 7 7 8 10 11 9 9 9 6 6 9 14 20 20 19
22 22 23 23 23 23 24 24 24 24 23 24 24 23 23 23 23 20 18 16 15 14 14 15 14 15 14 14 14 10 7 5 10 11 11 7 3 3 1 5 9 10 12 15 12 8 4 3 4 7 7 5 4 7 7 3 4 1 3 6 7 8 9 9 10 10 10 10 10 8 6 9 9 8 8 7 9 11 9 9 10 9 10 11 15 19 19 19
22 23 23 23 24 23 24 24 24 24 24 24 24 23 22 23 24 21 17 15 14 13 13 13 13 14 14 14 14 10 8 7 10 7 7 8 2 1 4 7 10 11 16 14 8 8 6 2 4 5 7 6 4 7 6 3 2 2 4 6 8 8 10 10 10 11 10 10 10 7 5 8 8 6 7 6 7 10 8 8 10 10 10 12 13 16 18 18
23 23 23 24 24 24 24 24 24 24 24 24 24 23 22 23 23 21 17 13 12 12 11 12 12 13 13 13 14 9 7 8 4 4 6 6 2 5 8 9 9 10 15 10 3 6 6 4 5 4 8 6 3 7 3 6 6 4 5 7 9 10 11 10 10 11 10 9 9 7 5 8 8 5 7 8 5 5 7 8 10 11 12 13 12 14 16 16
23 23 24 24 24 24 24 24 24 24 24 23 24 23 22 22 21 19 16 13 11 11 11 11 12 13 13 13 13 7 6 5 3 7 7 6 6 10 12 12 10 8 12 13 11 7 5 7 7 5 7 6 5 5 3 8 4 4 9 10 11 11 11 11 11 12 9 8 8 5 5 7 7 6 6 10 5 1 6 9 11 12 12 13 12 13 14 14
24 24 24 24 24 25 24 24 24 24 24 23 23 22 22 22 20 17 16 14 11 9 10 10 11 12 12 13 11 4 5 3 6 6 6 7 9 13 15 14 10 9 11 12 13 9 7 9 8 6 6 8 8 3 5 7 3 4 8 10 12 12 11 12 10 10 6 6 7 4 6 6 4 6 5 5 6 7 10 11 12 13 12 13 12 12 12 12
24 24 24 25 25 25 25 25 24 24 24 23 23 22 21 21 18 15 15 15 12 9 9 10 11 11 12 13 8 4 8 2 6 8 7 8 11 14 16 15 11 10 11 12 13 9 9 10 8 6 4 7 8 6 9 9 5 4 9 10 12 13 13 12 9 8 8 9 10 5 3 4 1 6 6 5 12 13 13 13 12 13 13 13 11 10 10 11
24 25 25 25 25 25 25 25 24 24 24 23 22 21 21 21 17 15 14 14 12 8 8 9 10 11 12 10 6 7 7 2 7 8 8 9 12 15 17 14 12 11 11 13 12 9 10 9 9 7 2 4 3 5 6 6 3 4 9 8 10 12 13 12 9 9 9 9 7 6 4 3 6 4 5 8 13 13 13 13 12 12 12 11 10 9 8 9
24 25 25 25 26 25 25 25 24 24 24 23 22 20 20 20 17 14 13 13 11 9 8 8 10 12 12 8 7 9 1 7 4 6 9 9 11 15 16 13 14 13 12 12 11 9 9 9 10 11 10 9 4 4 4 6 2 6 8 7 10 12 12 10 10 10 8 7 3 4 5 4 7 3 3 11 13 12 14 13 11 10 11 10 9 10 7 6
25 25 25 26 26 26 26 25 25 24 24 23 22 20 19 19 17 14 13 12 9 9 8 8 9 12 12 8 9 8 4 8 2 4 8 9 11 14 15 12 13 14 11 12 11 9 8 9 11 11 11 10 8 2 9 2 3 5 6 7 9 9 11 7 8 9 8 8 3 3 2 5 6 2 2 11 13 13 14 13 12 10 10 10 9 9 8 6
25 26 26 26 26 26 26 26 25 24 24 23 21 20 18 18 16 13 11 10 9 9 10 9 9 11 12 9 10 5 7 7 3 5 9 10 12 13 13 12 11 12 11 11 12 10 8 10 12 10 8 8 11 3 9 4 6 2 8 13 16 7 11 7 6 10 8 7 4 4 2 6 3 2 1 10 13 12 14 13 13 11 9 9 9 9 8 7
25 26 26 26 26 27 26 26 26 25 24 22 21 20 18 17 16 13 10 9 8 8 9 10 10 11 11 9 10 3 7 7 6 8 10 11 11 10 10 11 11 11 11 11 13 13 13 14 13 11 10 10 11 6 3 2 5 1 10 11 13 12 5 5 4 9 8 6 7 7 2 1 2 5 1 9 11 10 14 15 12 11 9 9 10 8 8 9
25 26 26 26 27 27 27 27 26 25 24 22 21 20 19 18 17 13 10 9 7 8 9 10 11 10 8 7 5 2 5 5 8 9 10 11 10 9 9 10 11 12 12 12 14 15 14 14 15 14 12 11 10 7 4 6 8 3 10 11 4 4 2 2 3 4 8 6 9 7 1 3 6 7 3 6 10 10 12 13 10 10 10 9 10 8 8 10
25 25 26 26 27 27 27 27 26 25 24 22 21 20 19 18 17 15 12 10 7 7 8 10 12 9 7 7 2 4 4 3 7 9 9 11 10 11 11 11 12 12 12 13 14 14 15 15 15 14 11 12 11 8 8 8 4 3 9 7 3 2 2 1 1 5 7 9 12 8 2 3 9 10 9 6 9 11 9 9 9 10 9 8 9 9 9 11
25 25 26 26 26 27 27 27 26 25 23 22 21 20 19 18 18 16 13 10 8 8 10 13 12 7 7 8 4 3 5 6 9 11 10 12 11 11 11 11 12 13 12 13 14 13 14 14 13 11 10 13 11 8 10 2 4 3 5 2 5 3 2 1 3 11 7 8 12 9 4 2 10 12 12 9 9 10 10 8 8 10 11 9 9 9 10 11
25 25 26 26 26 26 27 27 26 25 23 21 21 20 18 18 19 18 14 10 8 9 9 10 10 10 7 4 3 3 7 9 12 13 12 13 13 12 12 11 11 13 14 14 14 13 13 13 11 10 11 12 9 7 9 3 3 2 4 3 7 4 4 2 7 15 11 9 11 9 5 1 8 11 11 12 12 11 11 10 10 11 12 10 10 9 9 11
26 26 26 26 26 26 26 26 25 24 22 21 21 20 17 17 20 19 14 10 9 9 10 11 10 9 8 3 2 5 10 12 11 11 13 14 13 14 13 11 11 12 14 15 15 14 13 11 8 9 9 8 8 7 7 5 3 4 4 4 6 7 8 5 9 13 11 11 10 8 6 2 4 10 13 13 14 13 11 12 12 13 12 10 10 10 10 11
26 26 26 26 25 26 25 25 25 22 21 21 19 19 19 19 21 17 12 9 6 7 11 13 12 8 5 7 5 5 7 8 8 9 11 13 13 14 13 12 10 10 12 12 13 12 10 8 8 8 8 8 8 7 6 7 3 3 6 5 5 8 13 10 6 3 6 10 8 8 9 6 6 8 15 15 14 14 13 12 8 8 11 11 11 10 10 11
26 26 26 26 25 25 25 24 23 20 20 20 17 17 18 17 14 9 8 8 5 5 5 5 9 5 3 7 7 2 3 1 5 8 11 12 12 13 14 13 11 12 11 9 9 10 8 7 8 7 7 8 9 9 8 7 7 9 7 2 7 4 8 11 5 2 6 8 7 8 8 8 9 7 15 17 14 13 12 9 5 5 4 5 8 10 11 12
26 27 27 26 25 24 24 23 21 18 18 20 21 18 12 8 5 1 4 8 8 9 9 5 9 9 7 5 5 3 2 2 6 9 11 11 11 12 12 11 11 11 11 11 10 10 8 8 8 8 9 11 11 12 12 10 11 11 8 7 10 8 5 5 6 9 11 7 3 5 7 6 7 5 16 17 14 14 11 9 10 7 3 1 6 11 11 11
26 27 26 25 24 23 22 21 18 14 15 19 21 13 5 7 6 4 7 9 11 13 14 11 9 10 11 5 1 1 4 6 9 9 9 11 11 10 9 10 12 10 10 14 12 11 10 9 10 11 13 14 14 13 14 15 14 12 9 8 9 8 8 6 2 7 9 7 4 5 10 10 8 2 19 19 14 15 12 12 14 14 11 6 10 10 9 9
26 26 26 25 24 22 21 19 14 11 13 15 13 6 8 9 6 5 7 8 11 14 14 12 11 11 10 9 7 5 6 7 8 9 10 10 10 9 8 10 12 10 11 13 11 10 10 10 14 13 11 13 15 14 15 16 15 11 8 9 8 7 8 8 6 5 5 6 6 8 10 9 8 2 19 20 15 14 12 12 13 17 19 13 11 9 7 9
26 27 26 25 23 21 19 15 10 8 10 10 8 8 8 7 7 7 7 7 10 14 13 11 12 12 11 12 10 8 8 9 9 9 11 11 10 10 9 10 11 12 12 12 11 10 9 10 14 14 11 13 13 13 14 14 12 8 7 8 8 8 9 8 7 7 6 7 8 10 10 6 5 1 12 18 17 13 13 13 13 15 18 16 14 12 10 11
26 27 26 25 24 20 17 13 7 5 7 5 7 8 7 8 9 10 7 6 8 10 14 14 12 12 9 5 6 10 9 8 9 9 12 12 9 9 10 11 11 12 12 14 15 14 14 13 14 15 14 14 13 12 13 11 8 8 9 9 9 11 12 10 10 10 9 10 9 8 9 6 4 4 4 15 15 13 13 14 14 12 14 16 14 13 13 13
26 26 25 25 24 20 16 12 6 6 8 4 5 8 8 9 10 10 7 5 7 9 14 16 11 10 7 3 6 8 9 8 10 12 10 15 11 8 9 8 8 11 12 15 16 13 15 16 16 18 16 13 13 11 11 11 8 8 10 11 12 13 13 13 14 12 8 8 7 6 8 5 3 6 3 12 13 14 14 15 15 12 12 15 14 13 13 12
26 26 25 23 23 22 13 5 5 10 11 4 6 9 9 10 10 8 5 5 7 8 10 9 7 7 6 8 8 6 9 10 12 15 12 14 12 9 8 7 6 10 13 12 11 8 10 15 16 17 16 15 14 11 11 10 9 8 9 12 15 14 14 15 15 11 7 7 8 6 8 6 5 7 3 12 13 15 16 16 14 11 10 13 14 14 12 11
26 25 25 22 20 21 12 5 10 13 7 5 9 10 9 10 10 7 5 5 6 6 7 5 5 6 5 8 9 8 6 5 7 16 14 12 12 10 9 8 7 8 9 8 7 7 9 13 15 15 14 13 12 10 8 8 8 8 9 13 15 14 15 15 14 10 7 9 11 9 10 8 5 6 2 7 9 9 14 16 14 12 14 16 16 15 14 14
25 24 25 22 16 13 11 11 14 11 7 9 10 10 9 10 10 6 4 6 4 2 5 3 3 5 5 7 10 11 7 3 4 13 14 13 11 9 10 11 12 11 10 7 7 9 10 12 14 14 13 10 9 9 9 11 10 10 13 14 12 13 15 14 11 9 8 9 9 10 11 8 6 6 4 6 6 4 9 14 17 17 16 16 16 16 15 16
25 23 23 23 14 6 8 12 13 9 9 12 11 10 11 11 9 4 5 7 5 2 2 3 3 6 7 6 9 13 10 6 6 6 12 15 11 9 10 10 12 15 14 12 10 10 11 11 8 9 10 8 9 10 11 13 11 10 13 14 11 11 12 12 10 8 8 8 9 11 12 8 7 6 5 5 3 2 5 6 12 15 15 15 15 16 15 15
24 22 21 23 15 9 12 12 11 10 10 11 12 12 12 9 5 5 7 6 4 3 4 3 4 8 9 9 10 12 11 10 8 4 7 10 11 11 10 10 10 11 12 13 13 12 14 12 7 6 8 8 9 10 10 10 9 10 10 10 10 10 9 9 8 7 7 8 9 13 13 10 8 5 6 4 1 5 6 5 12 15 17 16 15 15 16 14
24 21 20 21 17 13 13 8 3 7 10 12 13 12 9 5 4 7 8 2 4 7 7 6 8 9 11 12 9 11 13 12 11 9 7 7 9 10 9 9 8 7 9 10 11 14 15 12 7 7 11 10 10 10 9 10 9 8 7 8 8 8 8 7 7 7 7 7 10 13 14 12 8 5 6 5 4 10 5 10 12 15 19 17 15 15 15 13
24 20 18 17 16 14 13 9 8 11 11 12 12 8 5 5 6 8 6 1 2 6 7 9 11 10 12 13 10 10 12 10 11 12 10 9 9 9 10 9 7 7 8 8 9 11 12 12 11 11 12 12 11 9 8 9 9 8 7 7 7 6 6 6 6 6 6 8 11 13 13 9 4 5 9 9 6 6 6 12 8 9 13 14 16 15 11 11
23 20 17 12 11 13 14 12 11 11 11 11 9 5 4 7 8 9 9 5 2 4 3 9 10 10 10 11 10 10 10 9 11 12 11 11 9 10 13 13 12 10 7 7 9 9 9 12 16 16 12 12 11 8 7 8 8 9 8 6 6 6 6 6 6 6 7 8 8 7 6 2 3 5 7 6 9 14 15 12 11 11 8 4 12 13 8 10
22 16 13 8 9 13 13 12 10 10 10 9 6 5 8 10 8 10 12 11 8 2 1 7 6 8 9 9 9 10 9 9 11 11 11 11 9 9 11 14 16 13 9 8 8 7 9 8 8 10 8 10 14 11 8 9 8 8 8 7 7 6 7 7 6 6 8 8 8 8 5 2 3 2 7 11 13 16 13 12 13 10 8 5 4 9 9 10
20 12 11 10 11 12 12 12 10 9 9 7 5 6 10 9 8 9 9 10 12 9 5 7 7 5 7 8 10 9 6 7 11 11 10 9 9 9 9 11 15 13 10 8 6 6 10 9 4 5 2 2 9 12 9 9 9 9 8 7 7 6 6 7 8 10 11 9 9 8 4 3 5 4 11 11 12 15 12 12 12 9 7 6 1 4 8 10
19 12 12 11 12 10 9 9 8 8 8 6 6 8 9 8 8 8 6 7 9 9 9 10 8 7 7 7 10 9 6 6 9 9 8 10 11 11 11 10 12 15 11 8 7 6 8 8 6 8 7 6 4 5 9 9 6 6 8 8 9 8 7 7 8 10 10 9 6 5 6 5 2 5 11 12 13 13 11 11 11 8 5 2 1 3 4 8
19 14 13 12 9 7 8 7 6 8 7 6 7 8 8 9 11 11 7 6 6 7 10 8 7 8 9 7 9 11 10 8 8 6 6 9 10 11 13 10 10 14 13 9 8 6 7 8 7 6 7 10 8 8 10 11 8 7 7 5 5 6 7 5 6 6 7 8 5 4 7 4 1 2 6 11 12 11 10 10 9 8 6 4 2 1 5 8
19 13 13 13 8 7 7 6 7 8 6 6 9 10 9 9 12 13 10 9 9 8 9 7 5 8 9 8 8 12 13 7 7 7 7 7 7 10 13 11 10 12 11 10 7 5 6 7 7 7 6 6 9 8 9 10 11 10 10 8 5 4 5 4 4 5 5 6 6 6 6 3 4 3 8 13 12 10 9 7 7 9 8 6 3 2 5 8
16 11 7 7 8 7 6 7 7 7 6 7 9 8 9 11 12 15 13 7 7 8 8 9 6 4 7 9 9 9 13 8 6 6 6 5 4 5 7 7 9 11 10 9 6 5 5 6 7 5 6 5 6 7 7 8 10 10 11 10 7 6 6 5 4 4 5 5 5 6 3 4 7 8 13 14 10 8 8 7 7 9 7 4 3 2 4 5
11 8 1 10 9 6 6 7 7 6 6 9 9 7 8 11 12 15 13 4 3 7 7 9 9 5 7 11 12 7 7 8 8 6 6 6 5 4 5 4 6 9 11 10 7 5 5 5 7 5 6 6 6 6 7 8 8 9 8 8 7 6 6 6 7 6 6 5 4 5 1 6 8 9 12 11 8 7 8 7 6 6 5 3 3 4 4 5
8 6 2 10 8 7 7 7 6 6 7 8 9 10 10 9 10 14 12 3 4 8 8 10 11 8 9 11 11 6 2 5 8 8 7 7 8 7 5 8 7 7 7 9 8 6 5 5 7 7 5 7 7 8 9 11 9 8 7 8 8 7 7 6 6 6 7 5 5 4 2 7 7 7 8 8 7 8 8 6 4 4 4 4 5 5 6 6
7 4 5 9 7 8 8 6 6 6 7 8 9 11 10 9 10 13 11 7 7 8 10 11 11 9 9 11 10 6 4 4 6 8 6 5 9 7 2 7 5 3 1 4 7 7 6 5 7 8 8 8 6 5 7 8 10 9 7 5 6 7 7 7 6 6 6 6 8 4 3 3 5 5 7 8 9 10 6 2 3 5 5 5 5 6 6 6
5 3 6 10 8 8 8 6 6 7 7 9 11 12 12 10 9 10 10 8 5 6 8 9 11 11 9 10 10 6 4 4 7 8 6 4 5 5 8 8 3 2 1 4 6 6 6 5 7 8 8 9 10 4 7 4 7 9 8 6 6 7 8 8 8 7 7 7 7 4 3 1 4 2 6 7 8 7 3 2 5 7 6 6 6 5 5 4
5 6 2 8 8 8 8 6 7 8 9 11 13 13 13 11 11 11 10 9 6 5 7 9 11 11 8 9 10 6 3 3 7 10 9 7 4 11 10 6 3 5 5 1 3 2 5 5 6 7 6 6 8 8 7 6 5 6 6 8 9 9 10 9 8 8 7 7 10 7 3 4 3 5 6 7 8 6 4 5 6 7 6 6 6 5 4 5
5 6 4 6 8 8 8 7 7 7 7 10 13 14 13 11 12 10 8 9 10 8 8 8 10 11 10 10 9 7 6 4 5 8 10 11 4 6 6 4 2 9 8 8 11 6 4 5 6 6 8 6 5 4 2 3 4 5 9 12 12 10 11 10 6 6 6 4 7 5 4 7 6 7 7 7 7 7 6 5 5 6 6 6 6 5 5 5
3 4 5 6 8 7 7 8 10 9 7 9 9 11 13 13 10 9 9 11 12 11 10 9 10 11 12 13 10 9 9 9 9 8 8 10 8 2 5 5 4 9 6 11 11 7 6 5 6 8 9 7 6 4 3 7 8 5 8 11 9 8 6 7 7 7 5 4 4 4 9 10 8 7 6 5 4 5 5 5 5 6 6 6 6 5 5 5
3 4 3 2 4 6 6 8 10 9 9 9 7 6 11 13 11 9 11 10 11 12 11 10 11 11 11 13 12 10 10 11 12 12 10 11 11 6 3 1 7 5 2 6 10 6 5 7 8 11 12 12 12 8 5 8 11 8 5 3 5 5 3 4 8 8 8 7 3 7 12 12 8 6 4 3 2 2 3 3 4 5 6 6 6 6 6 6
4 5 4 5 3 5 5 6 9 11 13 12 8 7 8 10 11 10 9 9 11 12 10 9 12 14 13 13 11 9 9 11 13 14 12 10 11 10 7 8 8 7 7 7 9 5 6 8 10 12 13 12 14 14 11 8 8 8 8 5 6 8 6 5 7 8 10 7 4 11 13 11 6 4 4 3 2 2 2 2 2 4 5 5 6 8 8 8
4 6 4 6 6 6 6 7 6 10 13 12 9 9 10 10 10 10 9 9 9 10 11 11 12 14 15 13 11 9 9 10 11 11 10 11 12 9 7 10 7 8 7 9 8 6 6 8 10 14 13 12 14 18 14 8 9 10 9 8 9 9 8 8 7 7 8 6 12 15 12 9 5 3 3 3 3 3 3 4 5 4 4 4 4 7 9 9
5 5 5 7 7 8 9 8 6 7 9 9 9 10 11 12 11 10 9 10 9 9 11 14 14 13 14 14 12 11 12 13 12 11 10 12 12 6 4 9 7 4 7 8 8 9 7 8 11 12 12 11 14 17 13 8 11 11 7 8 10 8 9 12 11 8 8 7 13 13 8 7 4 2 2 3 3 3 5 6 8 8 7 6 3 2 6 8
7 7 6 5 6 7 7 7 6 6 6 7 7 8 9 11 12 11 10 10 11 9 9 13 16 13 12 15 16 15 15 14 13 13 10 9 8 5 4 7 6 5 5 5 6 8 9 7 10 9 9 10 12 16 13 9 10 13 10 7 7 7 7 10 10 8 8 6 9 9 5 3 2 2 2 2 1 4 7 7 7 9 10 10 8 5 3 6
7 8 6 5 6 6 7 7 6 6 6 6 7 8 9 11 12 12 10 9 12 13 11 12 13 11 11 14 14 15 16 15 14 14 11 10 10 9 7 7 8 8 8 8 6 5 7 7 8 7 7 9 11 12 9 6 8 9 7 6 8 7 6 8 8 4 8 9 6 4 2 3 5 5 3 3 3 6 7 5 6 8 5 3 4 8 8 6
Wind_Direction
14 14 12 10 9 7 6 4 3 2 1 0 359 359 358 356 352 347 345 344 344 343 340 342 343 347 349 350 355 352 360 25 222 207 222 251 284 346 79 127 162 171 166 173 183 183 205 222 245 251 253 256 213 243 256 235 232 239 218 45 52 57 58 63 73 87 107 122 135 145 146 121 116 133 132 142 136 123 131 127 121 109 95 111 126 138 148 158
10 10 9 8 7 5 3 2 1 360 359 358 356 356 355 354 351 348 345 343 343 341 339 339 340 343 345 347 348 341 330 273 241 240 231 237 302 285 98 126 165 169 168 178 184 184 205 217 222 235 244 251 235 257 280 258 228 264 56 64 55 59 68 70 84 95 106 123 131 139 149 119 128 147 127 146 138 121 130 130 126 116 110 118 130 145 155 159
6 6 6 6 5 4 1 360 359 357 357 356 355 354 353 352 349 347 345 345 345 341 340 335 336 339 342 345 341 339 337 281 245 245 213 214 263 97 124 142 167 175 181 178 170 203 225 244 226 242 259 248 231 253 260 286 293 57 60 79 79 76 76 69 80 96 111 126 123 121 140 119 126 144 130 144 137 129 144 146 137 134 138 138 144 155 159 159
3 3 3 3 2 2 360 358 357 355 355 354 354 353 352 350 347 347 346 349 349 343 341 334 335 335 339 342 338 341 322 279 244 89 128 181 153 128 124 138 168 187 202 208 229 245 261 280 245 257 283 281 298 270 263 25 9 38 52 78 86 84 84 74 77 90 101 108 100 106 139 125 124 144 131 114 111 149 162 164 147 144 151 144 154 161 157 161
1 1 0 360 359 359 357 356 355 354 353 352 353 352 351 350 347 348 346 350 352 347 341 332 333 332 336 337 334 341 303 286 96 97 119 143 139 133 124 139 165 186 212 240 268 264 258 263 260 276 288 286 296 292 43 48 20 43 59 75 81 80 85 76 69 77 90 97 96 118 122 108 136 149 123 118 124 156 134 145 141 141 151 147 159 160 159 166
358 359 358 358 357 356 355 354 353 352 351 351 352 351 351 350 348 348 345 346 349 348 341 331 331 330 334 332 332 330 284 324 103 128 124 133 143 135 130 138 158 195 214 242 261 255 244 246 249 259 282 297 301 347 38 38 47 74 72 76 79 79 82 80 73 76 90 91 80 93 107 106 165 141 106 114 101 78 99 121 132 137 146 149 159 159 164 171
357 358 356 356 355 354 353 351 351 350 349 349 350 351 351 350 350 350 345 341 341 346 341 331 327 327 330 330 331 265 252 311 109 142 131 132 144 139 136 141 159 205 232 249 253 253 261 256 256 257 236 279 308 7 10 12 25 78 92 82 81 83 79 79 75 69 53 47 51 22 89 107 48 112 117 90 85 85 92 104 120 133 142 152 160 160 170 175
356 356 355 355 354 353 351 349 349 347 347 347 348 349 350 351 350 350 347 339 336 339 341 336 327 325 327 327 308 264 252 96 108 146 142 134 144 146 144 154 176 204 237 251 260 277 285 294 319 333 294 257 331 38 12 7 356 78 93 94 98 96 89 92 86 79 67 50 43 8 8 54 33 72 141 106 96 100 101 106 121 134 143 155 162 158 173 181
355 355 354 354 353 351 350 348 347 345 345 344 345 347 348 351 349 350 351 341 334 334 342 340 330 324 321 310 278 282 335 100 123 156 147 139 143 152 157 170 190 207 236 251 266 282 295 323 336 338 328 313 338 111 66 3 351 89 95 112 110 103 98 108 106 99 97 80 54 34 26 25 39 19 151 113 112 122 124 127 136 145 151 156 162 158 175 183
354 354 353 353 351 350 348 346 345 343 343 342 342 343 345 348 347 347 350 347 338 331 336 337 334 328 314 293 273 280 99 107 128 148 151 152 147 157 175 189 192 207 242 260 263 275 297 325 329 325 316 312 310 126 101 3 277 93 105 91 75 102 110 109 105 99 96 92 89 97 51 356 37 1 166 121 126 133 135 137 143 158 160 155 160 156 170 174
353 352 351 351 350 349 347 344 343 341 340 339 339 339 341 344 343 341 343 347 336 326 332 331 330 323 308 286 275 276 119 127 148 155 167 168 165 171 189 203 205 216 247 269 273 287 310 324 325 315 310 326 315 293 123 181 255 107 91 50 3 357 113 115 111 106 103 110 117 118 60 351 12 278 129 123 133 139 144 146 151 163 160 157 158 157 171 171
351 351 350 350 349 347 345 343 341 339 338 337 335 335 336 337 337 333 330 336 332 325 327 326 326 321 308 278 262 248 121 145 163 165 179 182 189 192 199 212 221 239 260 279 289 305 324 326 318 308 314 323 308 304 91 293 281 158 98 67 339 325 73 84 79 111 123 134 138 137 127 19 244 267 12 126 140 154 155 152 158 158 160 164 156 162 178 169
350 349 349 348 347 346 344 342 340 338 336 334 332 332 330 330 331 327 318 316 317 318 319 321 321 314 299 277 262 178 135 160 166 169 185 195 213 217 216 227 234 252 269 279 290 304 312 310 308 305 305 300 298 334 329 266 269 239 108 114 211 290 14 54 41 142 143 142 155 159 196 137 191 235 226 152 152 172 164 153 160 156 163 167 154 167 180 172
348 348 347 347 346 345 343 340 339 337 334 331 329 326 326 324 322 320 311 300 294 299 307 306 304 302 276 267 254 147 173 174 176 191 200 203 225 232 225 234 243 253 266 274 282 292 296 297 299 294 288 280 282 309 280 242 275 315 86 89 208 167 242 205 325 236 162 157 181 188 292 136 172 206 207 180 165 179 162 148 168 161 163 166 162 178 184 181
347 346 346 346 345 344 342 339 338 336 333 329 326 324 322 317 314 312 304 293 280 278 296 297 282 269 267 251 201 181 206 204 217 221 217 213 224 239 235 234 245 255 261 272 279 284 289 290 290 286 290 291 279 276 272 246 53 342 77 25 276 170 218 215 244 252 204 175 198 202 274 155 172 202 200 181 178 180 156 158 189 169 166 172 173 184 194 191
345 344 343 344 343 342 341 339 337 336 332 328 325 321 315 312 308 304 299 287 270 270 285 287 250 224 264 278 160 213 215 217 237 230 221 223 226 240 251 246 248 257 259 264 271 276 281 280 283 282 285 293 286 269 270 253 128 209 151 194 247 179 165 191 232 246 222 185 196 206 261 213 176 201 189 172 181 182 163 175 194 172 169 176 175 184 200 202
344 342 342 341 341 340 340 338 337 336 332 329 328 320 313 308 298 295 297 283 272 268 259 271 269 242 252 274 192 231 228 228 237 229 220 223 230 242 255 258 254 258 263 265 263 265 270 271 276 273 261 258 263 272 284 280 168 181 177 189 236 190 168 211 229 230 214 188 189 212 254 280 191 197 176 170 182 182 174 185 190 177 174 174 175 187 202 207
343 341 340 339 339 338 338 338 337 337 334 333 330 317 309 299 290 292 294 279 273 255 245 257 270 275 249 218 228 265 256 226 209 226 225 217 228 241 249 259 267 268 268 267 260 254 256 259 264 271 275 266 258 254 258 280 302 232 209 196 244 193 175 210 220 200 221 207 203 227 240 239 244 203 164 168 185 183 185 191 179 158 165 170 174 191 209 211
344 342 340 338 338 336 337 338 337 339 336 337 339 321 303 292 284 280 265 247 227 240 263 226 213 263 314 206 212 308 357 116 183 233 234 218 223 234 243 254 264 268 267 267 256 248 248 255 258 256 265 266 264 265 263 279 288 270 254 259 286 243 190 215 199 139 233 228 220 235 240 220 232 210 156 164 185 182 189 185 121 92 129 162 178 192 211 212
346 343 340 338 337 335 335 336 338 340 335 336 340 328 309 305 289 230 272 252 236 254 284 269 208 241 273 206 157 107 117 185 216 234 235 222 219 230 237 242 250 252 256 263 261 256 248 248 259 260 264 265 267 278 285 282 275 281 307 323 301 298 280 235 173 184 221 245 260 282 299 258 241 194 154 167 183 175 184 172 138 133 121 338 223 204 203 199
347 344 342 340 337 333 332 334 338 342 337 332 328 325 3 9 346 354 339 291 264 266 269 272 262 261 276 291 53 187 249 229 215 223 227 215 214 230 225 221 243 244 240 251 258 267 263 253 255 255 265 273 277 289 293 291 297 310 313 304 297 295 300 306 237 212 236 270 304 327 311 291 300 138 150 166 178 170 181 176 155 156 161 206 235 214 203 188
347 345 343 341 338 333 330 331 337 344 347 337 325 351 49 21 353 338 322 298 291 287 273 265 265 264 273 279 262 252 278 254 223 221 210 199 203 219 219 210 230 244 243 247 249 256 258 256 262 264 274 284 286 292 290 290 299 310 302 292 291 286 295 300 271 246 264 294 303 298 288 281 299 162 153 164 170 170 184 185 172 165 167 183 200 194 207 194
347 345 343 343 340 331 325 328 333 338 342 345 358 29 24 1 352 327 293 283 289 279 266 252 248 247 242 246 232 213 247 252 248 228 185 188 209 211 233 233 229 240 243 245 246 248 250 249 256 257 253 259 267 272 273 278 282 280 275 274 281 287 289 287 274 265 252 249 260 269 273 276 293 235 153 157 164 176 184 187 196 185 170 168 175 182 200 195
347 345 342 344 341 329 323 320 313 320 313 327 28 32 5 349 350 332 300 274 275 267 258 250 242 241 239 240 196 195 230 241 256 248 177 182 222 209 229 249 242 243 239 243 248 251 259 261 263 263 253 253 268 281 282 282 280 277 273 268 279 289 289 294 300 300 278 255 257 274 291 301 307 308 155 150 163 183 182 188 206 198 170 161 170 185 190 191
346 345 342 344 342 329 317 305 310 341 313 301 37 20 357 351 348 336 315 268 265 260 246 238 229 228 219 164 163 201 248 241 245 261 194 185 223 222 220 239 244 252 247 243 248 251 258 262 266 271 274 274 278 283 285 290 295 287 283 280 282 289 292 289 283 287 289 277 282 288 291 297 276 279 189 145 168 185 180 195 202 190 173 164 169 181 183 185
344 344 341 344 344 334 317 296 346 333 308 326 27 358 345 347 343 331 303 261 274 260 223 204 196 202 197 193 191 209 257 251 230 247 226 191 213 239 236 226 219 248 260 256 253 254 257 261 260 259 264 270 270 264 256 266 279 278 285 290 293 298 292 285 288 296 301 299 303 284 273 282 271 273 182 151 180 185 180 197 194 179 183 177 173 178 181 185
341 342 340 341 348 345 332 321 335 323 312 12 6 338 334 340 334 321 283 260 274 242 190 155 164 180 187 194 188 191 242 286 217 224 223 185 196 228 243 247 234 229 248 262 261 256 253 256 259 260 260 259 261 267 264 265 268 272 286 287 289 294 290 296 311 310 296 295 292 275 271 281 280 288 243 183 206 182 177 197 191 179 188 188 183 179 176 179
338 339 338 336 346 346 322 310 319 326 357 359 339 328 330 327 316 301 269 265 279 200 169 139 129 172 189 179 191 212 235 309 226 207 198 182 190 214 227 246 261 256 243 239 250 263 265 253 248 252 256 258 261 269 281 283 279 282 286 285 288 294 292 297 300 290 291 295 292 288 289 293 281 276 270 240 243 196 185 195 185 179 184 185 187 187 178 173
335 336 336 333 338 350 324 311 297 301 341 339 328 325 317 309 301 275 253 263 287 327 172 157 144 178 194 185 202 228 234 233 237 194 178 184 190 218 243 245 254 268 266 258 257 259 265 269 269 259 251 257 261 259 260 262 269 284 286 289 296 293 286 283 278 278 285 279 277 281 279 281 280 277 280 265 247 255 239 187 155 156 165 177 187 192 190 180
331 332 334 330 331 345 329 302 272 284 325 330 322 317 304 290 273 236 237 248 260 241 150 144 199 185 195 212 213 220 227 228 228 181 179 199 195 211 256 267 257 267 266 260 262 256 259 277 309 299 273 284 286 279 278 272 285 306 303 299 293 283 275 274 278 280 274 266 268 274 272 273 282 289 288 276 42 314 296 107 115 137 159 181 192 195 193 182
328 327 329 322 317 320 309 286 298 324 322 325 319 306 289 259 229 238 235 239 270 227 166 171 206 185 195 220 223 206 209 229 223 195 197 218 210 207 231 250 247 259 259 254 255 250 249 253 258 242 238 257 275 277 280 278 280 290 291 285 282 282 269 254 255 253 255 264 265 269 269 267 280 311 316 319 323 294 269 129 139 161 169 182 191 198 196 178
325 324 318 307 299 293 276 278 338 333 312 319 313 289 257 221 216 236 230 151 274 215 190 211 203 186 204 216 232 217 197 218 222 203 206 212 217 220 218 222 221 229 243 245 246 246 242 236 240 240 221 217 236 249 250 251 252 248 252 263 265 274 271 259 255 245 249 257 252 258 260 258 297 317 306 315 339 348 69 106 115 132 149 177 192 199 195 171
325 322 309 294 278 273 270 282 307 307 305 308 292 264 234 228 217 220 222 216 214 149 182 243 202 181 216 217 227 223 192 207 215 202 213 219 224 223 211 218 234 241 242 243 249 247 241 229 224 230 223 202 210 236 245 235 231 229 227 241 257 266 269 267 262 256 263 261 259 279 285 307 356 326 326 355 59 59 61 74 63 64 80 164 193 192 177 164
325 317 305 293 263 260 264 274 280 285 296 290 261 229 219 229 224 217 221 229 244 203 146 272 234 185 217 228 231 222 197 209 213 202 210 217 230 233 215 213 222 239 253 252 260 262 263 261 222 222 225 200 201 212 251 272 267 254 243 234 245 262 274 277 277 280 290 298 311 328 356 20 289 320 44 46 67 70 65 67 63 55 40 36 153 169 165 167
328 317 304 291 265 257 251 254 261 264 274 265 236 222 215 220 224 224 228 229 242 247 223 248 266 233 217 229 246 245 225 214 207 207 216 218 226 231 229 219 209 220 246 248 244 252 264 280 271 245 256 211 208 193 211 263 274 271 268 253 247 254 264 273 277 282 292 304 310 310 316 285 249 130 88 70 69 74 76 74 68 60 36 22 45 183 177 166
331 318 299 273 249 243 228 229 239 239 250 247 222 220 219 224 230 227 232 228 237 261 250 226 229 252 243 226 234 232 227 226 208 208 217 219 232 233 230 233 211 203 219 249 257 246 248 262 268 244 207 185 227 210 203 224 248 263 256 253 259 257 258 269 271 271 274 276 270 266 279 274 235 78 67 72 77 73 68 71 72 65 49 29 271 237 183 146
328 317 303 277 245 210 196 208 222 227 240 239 227 229 226 232 241 241 257 292 306 304 275 237 189 216 242 238 226 205 197 217 212 211 228 214 222 232 228 239 234 211 205 223 254 267 258 268 294 280 220 186 198 243 241 228 239 259 250 261 282 252 245 268 281 280 276 277 279 259 268 285 108 94 60 70 76 67 58 71 84 81 75 79 84 159 131 132
314 305 293 270 239 180 183 204 213 224 235 231 234 243 243 242 247 255 271 299 309 299 279 262 187 192 226 235 227 197 183 207 212 201 235 226 196 213 222 223 223 222 218 208 213 259 274 273 276 260 246 205 181 213 248 236 232 248 261 287 316 279 256 243 247 275 277 273 285 270 264 340 24 63 74 67 66 63 55 59 77 82 81 78 69 108 138 147
293 286 279 218 192 175 186 199 205 225 232 222 229 235 248 256 259 267 275 277 270 270 276 275 248 219 245 252 252 207 171 188 237 209 219 224 176 204 227 220 208 208 218 223 217 238 259 276 281 242 207 210 178 187 243 241 220 233 258 273 277 275 284 274 246 262 274 269 277 268 248 50 28 38 63 67 64 58 49 41 54 73 81 94 123 172 164 151
283 281 186 140 156 173 182 198 207 221 222 223 234 230 236 253 256 265 280 307 276 259 262 273 269 268 275 269 273 264 167 184 235 229 211 192 169 215 208 196 238 218 200 216 231 234 223 230 264 249 181 211 223 200 236 250 217 208 228 247 253 249 257 279 282 274 273 284 296 284 296 66 37 33 58 69 68 57 53 51 53 74 93 119 158 182 172 153
287 285 159 138 150 163 176 207 210 212 225 230 242 243 241 252 256 259 264 248 253 271 275 280 285 298 302 284 273 279 254 219 230 232 231 191 183 229 204 166 224 238 187 202 222 226 232 230 252 256 211 231 241 196 214 250 244 225 215 212 230 243 241 250 256 257 269 280 285 283 74 64 23 24 49 52 55 56 57 61 69 102 128 154 174 178 168 162
273 270 143 144 162 175 192 222 211 209 229 230 237 246 249 256 261 266 268 236 216 249 270 278 279 280 292 290 274 259 255 248 236 234 241 207 189 209 119 123 187 280 52 220 225 209 221 243 263 263 252 276 298 158 185 262 285 282 271 227 210 226 242 254 251 250 258 255 254 261 82 38 337 19 48 39 45 46 41 73 141 145 152 167 171 173 171 165
252 264 138 148 173 198 216 232 219 216 230 236 242 247 248 251 252 258 271 267 229 221 245 266 268 256 259 279 284 290 287 261 259 258 267 270 207 144 84 86 114 300 296 244 234 195 193 234 262 264 265 291 302 234 186 250 289 281 279 271 251 235 226 241 266 279 278 280 290 322 80 221 265 64 67 62 64 54 34 210 182 157 158 172 169 169 166 146
295 297 188 155 173 209 231 233 222 217 221 231 239 244 245 246 247 247 251 255 253 244 241 245 255 256 254 270 285 300 287 236 255 266 268 262 182 117 108 102 115 238 236 325 337 209 187 208 233 262 267 259 263 243 195 192 229 252 258 248 251 264 260 244 245 266 277 292 306 324 81 133 144 119 108 104 112 126 151 188 185 159 158 167 159 156 154 140
300 278 240 180 182 210 234 244 253 252 241 238 235 236 243 242 240 247 255 255 254 261 265 251 249 256 252 256 274 281 273 276 263 250 252 256 233 124 131 124 142 250 265 360 358 320 252 210 192 239 262 242 243 261 234 221 216 217 243 238 217 223 260 270 258 261 270 279 302 328 102 124 118 117 119 114 125 141 145 158 164 152 160 162 150 156 160 146
298 260 233 195 189 210 237 252 267 276 279 271 248 229 235 241 235 225 233 253 257 255 264 262 250 251 248 246 254 253 253 271 272 260 262 266 263 211 119 124 211 249 302 355 337 299 275 259 217 229 251 263 279 284 276 280 272 239 246 251 226 203 237 279 280 280 295 307 337 59 115 134 128 118 112 100 118 135 136 150 154 146 154 151 142 153 154 136
283 273 257 208 197 211 226 239 248 255 260 267 270 243 233 238 239 220 207 225 250 250 252 258 251 246 241 239 246 247 241 246 252 260 268 266 270 290 51 169 239 212 97 326 293 278 282 270 248 242 244 253 269 266 238 257 271 282 291 266 251 259 261 269 277 296 317 309 331 86 107 117 113 110 107 94 105 111 111 143 157 147 145 143 139 140 132 123
260 274 308 352 293 221 222 240 238 242 244 247 266 288 268 246 237 230 208 206 230 238 238 244 245 245 243 239 240 241 242 242 240 245 253 259 270 281 281 266 242 164 154 247 255 246 266 265 258 259 251 245 257 257 244 242 252 272 294 296 264 256 243 236 259 282 297 304 55 85 91 97 96 103 110 100 73 53 45 43 83 128 134 132 135 136 133 135
289 284 306 339 308 278 306 315 278 252 245 242 250 264 273 270 252 240 230 220 219 223 231 237 234 236 244 249 249 237 234 241 239 238 249 252 251 257 269 269 242 165 184 243 242 221 244 259 259 266 266 253 251 254 254 262 264 255 264 282 278 268 276 285 274 274 305 10 77 86 92 98 79 52 84 78 45 36 23 28 38 50 78 97 122 141 148 154
312 316 327 338 316 297 306 308 291 266 247 242 247 246 251 261 262 256 243 235 229 216 221 235 238 237 239 242 249 246 237 241 243 239 244 252 252 252 269 271 267 210 210 230 225 207 213 244 250 260 270 254 244 252 254 253 269 273 266 265 272 279 297 302 298 310 341 43 83 84 86 96 70 358 28 43 30 22 23 33 37 29 24 26 31 126 159 158
305 312 313 315 306 304 305 289 271 263 250 241 243 245 246 248 255 265 262 252 251 240 220 228 237 242 245 240 240 244 247 256 265 264 269 279 272 257 253 270 298 313 272 250 230 202 196 236 255 255 267 261 240 239 238 228 250 267 266 270 294 306 306 300 294 311 344 34 80 76 74 107 142 194 138 82 43 36 34 36 47 43 24 8 356 325 251 175
325 312 297 281 281 293 295 282 267 254 251 253 249 246 249 249 250 259 264 258 253 251 247 240 234 234 246 249 246 246 246 251 259 265 281 296 279 266 280 294 295 293 288 295 297 247 204 220 250 251 260 275 259 234 225 243 256 259 279 321 330 314 305 303 293 325 29 34 37 35 54 129 154 170 150 117 83 58 45 40 68 79 64 16 312 284 265 207